[[{"header":{"parameterUnit":"m.s-1","parameterCategory":1,"la1":30.2991,"la2":30.254,"lo1":-89.0895,"lo2":-89.0444,"dy":0.0017,"dx":0.0017,"nx":28,"ny":28,"refTime":"2023-07-26T21:00:00:Z","depth":0,"parameterNumber":2,"parameterNumberName":"U-component_of_WINDS"},"data":[0,0,0,0,0,0,0,0,0,0,0,0,0,0,0,0,0,0,0,0,0,0,0,0,0,0,0,0,0,0,0,0,0,0,0,0,0,0,0,0,0,0,0,0,0,0,0,0,0,0,0,0,0,0,0,0,0,0,-0.4536,-0.4537,0,-0.4576,-0.4576,-0.4576,-0.4615,-0.4615,-0.4616,-0.4616,-0.4654,-0.4654,-0.4655,0,0,0,0,0,0,0,0,0,0,0,0,0,-0.4492,-0.4493,-0.4536,-0.4537,-0.4537,-0.4575,-0.4576,-0.4577,-0.4615,-0.4615,-0.4616,-0.4616,-0.4654,-0.4654,-0.4655,0,0,0,0,0,0,0,0,0,0,0,0,0,-0.4519,-0.4493,-0.4536,-0.4561,-0.4563,-0.4575,-0.4576,-0.4577,-0.4615,-0.4615,-0.4616,-0.4617,-0.4653,-0.4654,-0.4655,-0.4645,0,0,-0.4657,-0.4658,0,0,0,0,0,0,0,0,-0.4518,-0.4521,-0.4557,-0.4559,-0.4562,-0.4591,-0.4574,-0.4599,-0.4614,-0.4595,-0.4616,-0.4617,-0.4632,-0.4635,-0.464,-0.4646,-0.4648,-0.4657,-0.4658,-0.4658,-0.4658,0,0,0,0,0,0,0,-0.4516,-0.4519,-0.4552,-0.4557,-0.456,-0.4569,-0.4574,-0.4579,-0.4609,-0.4597,-0.46,-0.4604,-0.4634,-0.4639,-0.4641,-0.4649,-0.4657,-0.4658,-0.4659,-0.4659,-0.4648,-0.4648,0,0,0,0,0,0,-0.451,-0.4517,-0.455,-0.4553,-0.4541,-0.457,-0.4575,-0.4581,-0.4609,-0.4614,-0.4603,-0.4606,-0.4638,-0.464,-0.4643,-0.4633,-0.4658,-0.4659,-0.4659,-0.4649,-0.4648,-0.4648,0,0,0,0,0,0,-0.4509,-0.4513,-0.4549,-0.4536,-0.4541,-0.457,-0.4576,-0.4581,-0.4587,-0.4614,-0.4619,-0.4604,-0.4638,-0.4642,-0.4644,-0.4635,-0.4659,-0.466,-0.465,-0.4649,-0.4648,-0.4612,0,0,0,0,0,0,-0.4508,-0.4512,-0.4509,-0.4536,-0.4542,-0.455,-0.4576,-0.4582,-0.4589,-0.4592,-0.4616,-0.462,-0.4639,-0.4643,-0.4645,-0.4636,-0.4661,-0.4651,-0.465,-0.4648,-0.4614,-0.461,-0.4606,0,0,0,0,0,-0.4506,-0.4497,-0.4509,-0.4512,-0.4538,-0.4549,-0.4553,-0.4576,-0.4588,-0.4584,-0.4602,-0.4619,-0.4636,-0.4643,-0.4645,-0.4637,-0.4652,-0.465,-0.4648,-0.4616,-0.4611,-0.4606,0,0,0,0,0,0,-0.4467,-0.4501,-0.4514,-0.4513,-0.4528,-0.4556,-0.4552,-0.4569,-0.458,-0.4583,-0.461,-0.4615,-0.4614,-0.4626,-0.4633,-0.4628,-0.4646,-0.4645,-0.4621,-0.4616,-0.4612,-0.4609,-0.4661,0,0,0,0,0,-0.4458,-0.4465,-0.4494,-0.449,-0.4497,-0.4523,-0.4529,-0.4545,-0.4562,-0.4568,-0.4585,-0.4599,-0.4608,-0.4613,-0.4622,-0.4617,-0.4622,-0.4612,-0.4608,-0.4605,-0.4603,-0.4601,-0.4597,-0.4642,-0.4642,-0.4642,0,0,-0.444,-0.446,-0.4462,-0.4483,-0.4496,-0.4502,-0.4528,-0.4533,-0.4537,-0.4568,-0.4572,-0.4585,-0.4603,-0.4601,-0.4602,-0.4611,-0.4592,-0.4602,-0.4599,-0.46,-0.4599,-0.4594,-0.4591,-0.4641,-0.4641,-0.4641,0,0,-0.441,-0.4426,-0.4425,-0.4438,-0.4459,-0.4476,-0.4476,-0.4501,-0.4512,-0.4516,-0.4539,-0.4545,-0.4558,-0.457,-0.4578,-0.4554,-0.457,-0.4556,-0.4534,-0.4532,-0.4529,-0.4526,-0.4517,-0.4513,-0.4554,-0.4554,-0.4554,0,-0.4385,-0.4395,-0.4422,-0.4425,-0.4434,-0.4463,-0.4462,-0.4474,-0.4496,-0.45,-0.4511,-0.453,-0.4544,-0.4545,-0.454,-0.4545,-0.4545,-0.4553,-0.4527,-0.4525,-0.4522,-0.4514,-0.451,-0.4552,-0.4553,-0.4553,-0.4553,0,-0.4363,-0.437,-0.4366,-0.4388,-0.4396,-0.4397,-0.4423,-0.4428,-0.4445,-0.4461,-0.4465,-0.4483,-0.4496,-0.4498,-0.4514,-0.4502,-0.4508,-0.4522,-0.4541,-0.4515,-0.4508,-0.4505,-0.455,-0.455,-0.4551,-0.4551,0,0,-0.4308,-0.4346,-0.4344,-0.4354,-0.438,-0.4385,-0.4388,-0.4402,-0.4406,-0.442,-0.4423,-0.4434,-0.4448,-0.4457,-0.4474,-0.4472,-0.4452,-0.4488,-0.4489,-0.448,-0.444,-0.4428,-0.4424,-0.4464,-0.4463,-0.4463,-0.4439,0,-0.4282,-0.4289,-0.4313,-0.4313,-0.4319,-0.4348,-0.435,-0.4366,-0.4381,-0.4389,-0.4406,-0.4413,-0.4432,-0.4437,-0.4437,-0.4454,-0.4444,-0.4457,-0.4465,-0.4465,-0.4459,-0.4421,-0.4408,-0.4384,-0.4436,-0.4436,-0.4435,0,-0.4252,-0.4266,-0.4266,-0.4292,-0.4296,-0.4298,-0.4313,-0.432,-0.4338,-0.435,-0.436,-0.438,-0.4383,-0.4401,-0.4406,-0.4414,-0.4419,-0.4428,-0.4428,-0.4429,-0.4448,-0.442,-0.4377,-0.4374,-0.4431,-0.4431,-0.4432,0,-0.4212,-0.423,-0.4233,-0.4241,-0.4272,-0.4272,-0.4285,-0.4304,-0.4311,-0.4324,-0.4329,-0.4342,-0.4349,-0.4359,-0.4381,-0.4392,-0.4384,-0.4403,-0.4393,-0.4392,-0.4389,-0.4388,-0.4346,-0.4393,-0.4393,-0.4393,-0.4393,0,-0.418,-0.4178,-0.4216,-0.4217,-0.4217,-0.4245,-0.4243,-0.4259,-0.4275,-0.428,-0.4306,-0.4309,-0.4339,-0.4346,-0.4363,-0.4365,-0.4368,-0.4377,-0.4381,-0.4374,-0.4373,-0.4377,-0.4379,-0.4392,-0.4392,-0.4393,-0.4393,0,-0.4134,-0.4159,-0.4163,-0.4192,-0.42,-0.4198,-0.4223,-0.4225,-0.4243,-0.4248,-0.4251,-0.4278,-0.4288,-0.4312,-0.4327,-0.4339,-0.4335,-0.4344,-0.4329,-0.4332,-0.432,-0.432,-0.4278,-0.4273,-0.4324,-0.4323,-0.4323,0,-0.4111,-0.4111,-0.4141,-0.4146,-0.4158,-0.4166,-0.4174,-0.4202,-0.4209,-0.423,-0.423,-0.4242,-0.4252,-0.4266,-0.4287,-0.4299,-0.4308,-0.4292,-0.431,-0.4302,-0.4307,-0.4306,-0.4306,-0.4288,-0.4287,-0.4287,-0.4286,0,-0.4068,-0.4081,-0.4092,-0.4107,-0.4116,-0.4129,-0.4144,-0.4146,-0.4177,-0.4184,-0.4195,-0.4203,-0.422,-0.4231,-0.4246,-0.4259,-0.4277,-0.4281,-0.4279,-0.4271,-0.4262,-0.4266,-0.4318,-0.4281,-0.4282,-0.4282,-0.4282,-0.4282,-0.4033,-0.4035,-0.4056,-0.4067,-0.4081,-0.4094,-0.4098,-0.4117,-0.4127,-0.4143,-0.4159,-0.4168,-0.4186,-0.4209,-0.422,-0.4227,-0.4237,-0.4234,-0.4233,-0.4232,-0.4228,-0.4262,-0.423,-0.423,-0.423,-0.4231,-0.4231,0,-0.3991,-0.4007,-0.4017,-0.4037,-0.4046,-0.4064,-0.4081,-0.4087,-0.4095,-0.4112,-0.4122,-0.4134,-0.4146,-0.4168,-0.4181,-0.4182,-0.4191,-0.4185,-0.4184,-0.4187,-0.4219,-0.422,-0.4177,-0.4177,-0.4177,-0.4177,-0.4177,-0.4177,-0.397,-0.3974,-0.3989,-0.4,-0.4015,-0.4025,-0.4033,-0.4045,-0.4059,-0.4072,-0.4082,-0.4097,-0.4115,-0.413,-0.4141,-0.4147,-0.415,-0.4141,-0.415,-0.418,-0.4185,-0.4189,-0.419,-0.4142,-0.4142,-0.4117,-0.4117,-0.4116]},{"header":{"parameterUnit":"m.s-1","parameterCategory":1,"la1":30.2991,"la2":30.254,"lo1":-89.0895,"lo2":-89.0444,"dy":0.0017,"dx":0.0017,"nx":28,"ny":28,"refTime":"2023-07-26T21:00:00:Z","depth":0,"parameterNumber":3,"parameterNumberName":"V-component_of_WINDS"},"data":[0,0,0,0,0,0,0,0,0,0,0,0,0,0,0,0,0,0,0,0,0,0,0,0,0,0,0,0,0,0,0,0,0,0,0,0,0,0,0,0,0,0,0,0,0,0,0,0,0,0,0,0,0,0,0,0,0,0,0.4592,0.4594,0,0.4854,0.4857,0.486,0.5011,0.5012,0.5012,0.5013,0.5281,0.5287,0.5294,0,0,0,0,0,0,0,0,0,0,0,0,0,0.4221,0.4227,0.4591,0.4595,0.4598,0.4853,0.4857,0.486,0.5011,0.5012,0.5012,0.5013,0.5279,0.5287,0.5295,0,0,0,0,0,0,0,0,0,0,0,0,0,0.4422,0.4229,0.4591,0.4704,0.4717,0.4852,0.4857,0.4861,0.5011,0.5012,0.5012,0.5013,0.5276,0.5286,0.5296,0.534,0,0,0.5326,0.533,0,0,0,0,0,0,0,0,0.4411,0.4436,0.4684,0.4696,0.4711,0.4901,0.4825,0.5022,0.5011,0.4899,0.5013,0.5014,0.5154,0.5174,0.5221,0.5352,0.5364,0.5327,0.5333,0.5337,0.534,0,0,0,0,0,0,0,0.4396,0.4425,0.4695,0.4687,0.4704,0.4741,0.4771,0.4863,0.5018,0.4909,0.492,0.4949,0.5161,0.5211,0.5228,0.5368,0.5327,0.5335,0.5342,0.5345,0.5548,0.5547,0,0,0,0,0,0,0.4365,0.4413,0.4687,0.4703,0.456,0.4747,0.478,0.4839,0.5018,0.5046,0.4948,0.4955,0.5194,0.5217,0.5238,0.5302,0.5337,0.5346,0.5352,0.5548,0.5548,0.5547,0,0,0,0,0,0,0.4356,0.4388,0.4676,0.4561,0.4601,0.4753,0.4817,0.4843,0.4894,0.5048,0.5076,0.4971,0.5195,0.5225,0.5313,0.5313,0.5351,0.536,0.5549,0.5548,0.5547,0.5428,0,0,0,0,0,0,0.4345,0.4384,0.4402,0.456,0.4606,0.4746,0.4817,0.4848,0.491,0.4922,0.5076,0.5103,0.5198,0.5298,0.5323,0.5328,0.5368,0.555,0.5549,0.5548,0.5433,0.5424,0.5415,0,0,0,0,0,0.4331,0.4358,0.4402,0.4434,0.4632,0.4746,0.4772,0.4882,0.4909,0.4929,0.5028,0.5098,0.5309,0.5305,0.5335,0.5343,0.555,0.5549,0.5548,0.5437,0.5425,0.5416,0,0,0,0,0,0,0.4196,0.4381,0.4432,0.4511,0.4611,0.4771,0.48,0.4866,0.4961,0.4968,0.51,0.5134,0.521,0.5286,0.5278,0.5395,0.5437,0.5442,0.5343,0.5333,0.5324,0.5305,0.5376,0,0,0,0,0,0.4175,0.4252,0.441,0.4464,0.4512,0.4646,0.47,0.4776,0.4886,0.4929,0.5035,0.5138,0.5228,0.5285,0.5376,0.5444,0.548,0.5464,0.5455,0.5447,0.545,0.5492,0.5487,0.5543,0.5543,0.5543,0,0,0.4133,0.4244,0.4284,0.444,0.4527,0.4603,0.4681,0.4759,0.4818,0.4941,0.5032,0.5112,0.5237,0.5315,0.5355,0.538,0.5442,0.5446,0.5438,0.5446,0.549,0.5484,0.548,0.5542,0.5542,0.5542,0,0,0.4096,0.4187,0.4243,0.4328,0.4459,0.4548,0.4561,0.4711,0.477,0.4862,0.4956,0.5027,0.5179,0.5264,0.5327,0.5321,0.5389,0.5347,0.5302,0.5341,0.5336,0.5333,0.5331,0.5329,0.5349,0.5349,0.5349,0,0.4028,0.4147,0.4263,0.4336,0.4401,0.4516,0.4573,0.465,0.4803,0.4846,0.4872,0.5065,0.5157,0.5257,0.5256,0.5303,0.5322,0.5331,0.5327,0.5325,0.5324,0.5324,0.5323,0.5343,0.5344,0.5344,0.5345,0,0.4057,0.4138,0.4167,0.4312,0.4381,0.4445,0.4571,0.4626,0.4695,0.4781,0.4874,0.4988,0.5105,0.5134,0.5202,0.5244,0.5255,0.5302,0.5348,0.5311,0.5313,0.5314,0.5334,0.5337,0.5338,0.534,0,0,0.3943,0.4151,0.416,0.4227,0.4379,0.4444,0.4513,0.4627,0.4672,0.4773,0.4835,0.496,0.5005,0.5076,0.5155,0.5189,0.5177,0.5233,0.5238,0.5219,0.523,0.5194,0.5192,0.5223,0.5223,0.5224,0.522,0,0.3929,0.4059,0.4165,0.4255,0.4332,0.4441,0.4502,0.4601,0.4683,0.476,0.4851,0.4938,0.499,0.5034,0.5073,0.517,0.5182,0.5172,0.5282,0.5284,0.5248,0.5193,0.5156,0.5147,0.5221,0.5222,0.5222,0,0.393,0.4027,0.4125,0.4269,0.4305,0.4357,0.447,0.4542,0.4657,0.4714,0.4793,0.4875,0.4953,0.4989,0.5099,0.509,0.5141,0.5195,0.5198,0.5213,0.5251,0.5207,0.5147,0.5145,0.5224,0.5224,0.5224,0,0.3837,0.3993,0.4072,0.4125,0.4295,0.4329,0.4401,0.4518,0.4579,0.4677,0.4718,0.4824,0.4882,0.4961,0.507,0.5086,0.5168,0.5213,0.5218,0.5215,0.5231,0.5228,0.5178,0.5262,0.5262,0.5262,0.5262,0,0.3811,0.3866,0.4032,0.4081,0.4146,0.4267,0.4328,0.441,0.4512,0.4578,0.4679,0.4739,0.4878,0.4955,0.504,0.5117,0.5143,0.5191,0.5213,0.5183,0.5177,0.5219,0.5222,0.5261,0.5261,0.5262,0.5262,0,0.3719,0.3832,0.3925,0.4078,0.4118,0.4159,0.429,0.4341,0.4428,0.4511,0.4537,0.4674,0.477,0.4885,0.5018,0.5075,0.5145,0.5178,0.5106,0.5119,0.5117,0.5115,0.5092,0.5095,0.5175,0.5174,0.5173,0,0.3695,0.374,0.3898,0.3949,0.4018,0.41,0.4163,0.4283,0.4345,0.4479,0.4513,0.4616,0.4706,0.4853,0.4964,0.5066,0.5103,0.5087,0.5119,0.5086,0.5103,0.5099,0.5105,0.5079,0.5078,0.5076,0.5075,0,0.364,0.3694,0.3781,0.3887,0.3959,0.4049,0.4143,0.4179,0.4318,0.4382,0.4481,0.455,0.4685,0.4786,0.4902,0.4977,0.5049,0.5064,0.5071,0.5041,0.4997,0.5021,0.5084,0.5065,0.5066,0.5067,0.5067,0.5068,0.3583,0.3628,0.3745,0.3839,0.3922,0.4007,0.4063,0.4156,0.4241,0.436,0.4426,0.4523,0.4637,0.48,0.4872,0.4949,0.4975,0.4984,0.4987,0.4988,0.4979,0.4984,0.4971,0.4971,0.4972,0.4972,0.4973,0,0.3533,0.3614,0.3699,0.3827,0.39,0.3961,0.4068,0.4125,0.4209,0.4309,0.4394,0.4507,0.4606,0.4724,0.4831,0.487,0.4906,0.4894,0.4893,0.4909,0.4949,0.4933,0.4863,0.4863,0.4863,0.4863,0.4863,0.4863,0.3516,0.3596,0.3663,0.3785,0.3867,0.3962,0.4018,0.4097,0.4178,0.4299,0.4381,0.4458,0.4566,0.468,0.4773,0.4806,0.484,0.4818,0.486,0.4896,0.4906,0.4915,0.4901,0.4825,0.4825,0.4814,0.4814,0.4814]}]]